Погода Петропавловск-Каз.

Погода Петропавловск-Каз. : погода сейчас, прогноз погоды и архив. Всё, что Вы хотите узнать о погоде Петропавловск-Каз.!

Поиск расширенной информации на нашем сайте:

Другие новости

Новости СМИ2

Главная страница сайта

Новости сайта

03.07.2017

Напоминаем, что на нашем специализированном сайте Метеоцентр.Азия вы можете получить высокодетализированные автоматические прогнозы погоды по пунктам России, СНГ и мира в авиационном формате (включающие направление и скорость ветра, видимость, явления погоды, количество и форму облачности, нижнюю и верхнюю границу облачности).


Погода Петропавловск-Каз. - сегодня

Время (UTC), дата Ветер
(°,м/с) 
Видим.   Явления Облачность Т
(°С)
Тd
(°С)
f(%) Тe
(°С)
Pmin
(гПа)
dP
(гПа)
Po
(мм)
O2
(г/м3)
Тmin Tmax R s Состояние
почвы
09 12.02.18 110 (В) 10 км  {ливн. осадки}  10/6 1000 м средняя 
[Sc|Ac As]
-10 -14.8 68 -13  1025.9  -0.1  759  319           
21 12.02.18 110 (В) н/о  слаб. снег  10/10 600 м 
[Ns]
-14.5 -17.6 77 -18  1025.9  -0.1  759  325           
03 13.02.18 090 (В) 4000 м  слаб. снег  10/10 600 м 
[Ns]
-15.3 -18.6 76 -20  1025.2  -0.1  759  325      0.2  14  равномерный
сухой снег
100% 
09 13.02.18 100 (В) 10 км  {снег}  8/0 средняя, верхняя 
[Ac As|Cc]
-12.9 -17.6 68 -19  1024.6  -0.9  758  322           
15 13.02.18 тихо ()   н/о    9/9 1000 м 
[Sc]
-15.4 -18.1 80 -15  1023  -0.5  757  325    -12.2       
21 13.02.18 070 (В) н/о  слаб. снег  10/0 средняя 
[As op]
-14.2 -16.9 80 -18  1020.8  -1.3  755  323           
03 14.02.18 040 (СВ) 10 км  {снег}  10/10 1000 м 
[Sc]
-16.9 -20 77 -21  1019.7  -0.4  755  326      0.2  14  равномерный
сухой снег
100% 
09 14.02.18 030 (СВ) 4000 м  слаб. снег  10/0 средняя 
[As op]
-12.6 -15.8 77 -17  1017.6  -1.2  753  320           
21 14.02.18 330 (СЗ) н/о  слаб. снег  10/0 средняя 
[As op]
-13.1 -15.5 82 -18  1018.1  0.4  754  320           
03 15.02.18 340 (С) 4000 м  слаб. снег  10/0 средняя 
[As op]
-13.1 -15.2 84 -17  1020.1  1.6  755  321      19  равномерный
сухой снег
100% 
09 15.02.18 320 (СЗ) 4000 м  слаб. снег  10/0 средняя 
[As op]
-10.1 -14 73 -15  1023.2  1.6  757  318           
18 15.02.18 290 (З) н/о    ясно 
-18.2 -20.9 79 -22  1030.5  1.9  763  331    -9.6  0.6     
21 15.02.18 300 (СЗ) н/о    ясно 
-19 -21.9 78 -23  1032.2  1.5  764  332           
00 16.02.18 тихо ()   н/о    ясно 
-26.4 -30.4 69 -26  1034.3  1.7  765  343           
06 16.02.18 280 (З) 10 км    ясно 
-16.1 -19.7 74 -16  1037.2  1.8  768  330  -29.2         
09 16.02.18 270 (З) 10 км    3/0 верхняя 
[Ci fib]
-11.8 -17.2 64 -15  1037.6  0.6  768  325           
12 16.02.18 270 (З) 10 км    ясно 
-11.6 -17.2 63 -11  1038.4  0.8  769  325           
15 16.02.18 180 (Ю) н/о    ясно 
-21.2 -24.3 76 -22  1040  769  338    -10.3       
18 16.02.18 тихо ()   н/о    ясно 
-23 -26.2 75 -23  1040.5  0.4  770  340    -10.3       
21 16.02.18 тихо ()   н/о    ясно 
-21 -24.1 76 -21  1040.7  0.3  770  338           
00 17.02.18 тихо ()   н/о    8/6 1000 м средняя 
[Sc|Ac trans]
-18.3 -21.2 78 -18  1040.7  0.1  770  334           
03 17.02.18 тихо ()   4000 м  слаб. снег  10/0 средняя 
[As op]
-14.9 -17.3 82 -15  1040.8  0.3  770  330      0.0  19  равномерный
сухой снег
100% 
09 17.02.18 230 (ЮЗ) 10 км    3/0 средняя, верхняя 
[Ac trans|Ci fib]
-6.5 -11.6 67 -8  1039.5  -0.9  770  319           
12 17.02.18 220 (ЮЗ) 10 км    ясно 
-10.1 -13.9 74 -13  1039.2  -0.4  769  323           
18 17.02.18 260 (З) н/о    ясно 
-15.6 -18.1 81 -19  1038.9  -0.6  769  330    -6.2  0.2     
Время (UTC), дата Ветер
(°,м/с) 
Видим.   Явления Облачность Т
(°С)
Тd
(°С)
f(%) Тe
(°С)
Pmin
(гПа)
dP
(гПа)
Po
(мм)
O2
(г/м3)
Тmin Tmax R s Состояние
почвы

Для получения пояснительной информации подведите курсор к названию столбца.

ПОГОДА Петропавловск-Каз. - архив

Всё, что Вы хотите узнать о погоде Петропавловск-Каз. - удобно и подробно!

Выберите нужную дату (начиная с 1 января 2015* года) и нажмите кнопку "Найти".
Будут отображены архивные сводки погоды по пункту Петропавловск-Каз., начиная с указанной даты.


Отображать данные в формате CSV (для использования в таблицах Excel)


Внимание! Наш архив погоды предназначен исключительно для личного некоммерческого использования в познавательных целях. Если Вам необходимы официальные справки о состоянии погоды (для производственных, юридических, коммерческих и т.п. целей), обращайтесь в органы Росгидромета.

*Примечание: данная дата относится к архиву по метеостанциям СССР (Россия, СНГ, Балтия).
Архив по метеостанциям Зарубежной Европы и Азии (кроме Китая) хранится 10 дней, по другим регионам земного шара (Китай, Африка, Америка, Австралия, Океания) - 1 день.

Петропавловск-Каз. - район местоположения метеостанции


Название, широта, долгота, высота метеостанции:
Петропавловск-Каз. 54.8°ш. 69.2°д. 142 м над ур. моря [Казахстан]

Дополнительная информация

В oтличие oт бoльшинства пoгoдных сайтoв мы публикуем пoдрoбную метеoинфoрмацию в детальнoм прoфессиoнальнoм фoрмате.

Характеристики температуры и влажнoсти вoздуха измеряются на высoте 2 м в тени вдали oт зданий и деревьев.
Скoрoсть ветра измеряется на высoте 10 м (на урoвне рoста челoвека скoрoсть ветра ниже в 1.5-2 раза). Если метеoстанция нахoдится в гoрoде или в лесу, тo скoрoсть ветра занижена на 2-4 м/с пo сравнению с oткрытым местoм. Скoрoсть ветра над акватoриями крупных рек и oзёр, а также на вершинах хoлмoв на 2-5 м/с выше, чем в oбычных услoвиях.
Атмoсфернoе давление в разных тoчках местнoсти мoжет значительнo oтличаться oт давления на метеoстанции, в зависимoсти oт услoвий рельефа (при пoдъёме на 10 м давление пoнижается примернo на 1 мм рт.ст.).